CAPE
0 0 0 0 0 0 0 0 0 0 0 0 0 0 0 0 0 0 0 0 0 0 0 0 0 0 0 0 0 0 0 0 0 0 0 0 0 0 0 0 0 0 0
0 0 0 0 0 0 0 0 0 0 0 0 0 0 0 0 0 0 0 0 0 0 0 0 0 0 0 0 0 0 0 0 0 0 0 0 0 0 0 0 0 0 0
0 0 0 0 0 0 0 0 0 0 0 0 0 0 0 0 0 0 0 0 0 0 0 0 0 0 0 0 0 0 0 0 0 0 0 0 0 0 0 0 0 0 0
0 0 0 0 0 0 0 0 0 0 0 0 0 0 0 0 0 0 0 0 0 0 0 0 0 0 0 0 0 0 0 0 0 0 0 0 0 0 0 0 0 0 0
0 0 0 0 0 0 0 0 0 0 0 0 0 0 0 0 0 0 0 0 0 0 0 0 0 0 0 0 0 0 0 0 0 0 0 0 0 0 0 0 0 0 0
0 0 0 0 0 0 0 0 0 0 0 0 0 0 0 0 0 1 0 0 0 3 2 0 0 0 0 1 3 5 1 1 1 1 0 0 0 0 0 0 0 0 0
0 0 0 0 0 0 0 0 0 0 0 0 0 0 0 0 0 3 5 2 1 0 1 4 12 7 1 0 2 6 5 1 4 1 4 3 0 0 0 0 0 0 0
0 0 0 0 0 0 0 0 0 0 0 0 0 0 0 0 1 4 7 5 6 5 6 8 10 9 8 9 5 1 4 3 1 4 4 0 0 1 0 0 0 0 0
0 0 0 0 0 0 0 0 0 0 0 0 0 0 0 0 2 8 12 4 11 8 6 4 8 12 10 21 7 0 0 0 3 11 12 14 26 37 23 9 0 0 0
0 0 0 0 0 0 0 0 0 0 0 0 0 0 0 0 0 7 16 5 0 8 5 5 15 10 19 25 11 2 2 5 17 7 1 1 1 0 42 22 8 6 6
0 0 0 0 0 0 0 0 0 0 0 0 0 0 0 0 0 5 19 16 6 0 0 4 6 13 23 26 29 1 1 5 0 2 0 18 15 11 9 5 6 10 4
0 0 0 0 0 0 0 0 0 0 0 0 0 0 0 0 0 3 21 29 29 3 0 0 0 10 22 27 28 35 63 71 5 1 1 9 10 10 9 16 4 5 6
0 0 0 0 0 0 0 0 0 0 0 0 0 0 0 0 0 2 16 20 22 8 0 7 32 30 31 11 3 1 5 0 0 0 0 0 0 4 10 25 8 0 0
0 0 0 0 0 0 0 0 0 0 0 0 0 0 0 0 0 0 0 0 4 2 3 0 5 19 52 36 0 0 0 0 0 0 0 0 1 2 5 15 15 5 5
0 0 0 0 0 0 0 0 0 0 0 0 0 0 0 0 0 26 35 10 5 16 26 2 1 2 8 2 0 0 0 0 0 0 0 0 6 0 6 0 20 10 11
0 0 0 0 0 0 0 0 0 1 5 10 14 8 1 23 34 39 43 49 42 36 0 0 0 0 0 0 0 2 4 4 0 0 0 1 8 2 0 0 0 3 3
0 0 0 0 0 0 0 0 0 0 0 0 4 11 15 19 27 37 27 28 8 5 0 0 0 0 0 0 0 0 1 4 0 0 0 2 11 1 25 12 20 0 0
0 0 0 0 0 0 0 0 0 0 0 0 0 3 7 15 23 17 20 1 0 0 0 0 0 0 0 0 0 0 0 0 0 0 0 2 5 0 3 0 0 0 0
0 0 0 0 0 0 0 0 0 0 0 0 0 0 0 5 7 3 6 0 0 0 0 0 0 0 0 0 0 0 1 1 0 0 0 0 0 0 0 7 7 0 0
0 0 0 0 0 0 0 0 0 0 0 0 0 0 0 0 0 0 0 0 0 0 0 0 0 0 0 0 0 0 0 0 1 0 0 0 0 0 1 2 7 3 0
0 0 0 0 0 0 0 0 0 0 0 0 0 0 18 0 0 0 0 0 0 0 0 0 0 0 0 0 0 0 0 0 0 0 0 0 0 0 0 2 0 0 0
0 0 0 0 0 0 0 0 0 0 0 0 0 0 4 0 0 0 0 0 0 0 0 0 0 0 0 0 0 0 0 0 0 0 0 0 0 0 0 0 0 0 0
0 0 0 0 0 0 0 0 0 0 0 0 0 0 0 0 0 0 0 0 0 0 0 0 0 0 0 0 0 0 0 0 0 0 0 0 0 0 0 0 0 0 0
0 0 0 0 0 0 0 0 0 0 0 0 0 0 0 0 0 0 0 0 0 0 0 0 0 0 0 0 0 0 0 0 0 0 0 0 0 0 0 0 0 0 0
0 0 0 0 0 0 0 0 0 0 0 0 0 0 0 0 0 0 0 0 0 0 0 0 0 0 0 0 0 0 0 0 0 0 0 0 0 0 0 0 0 0 0
0 0 0 0 0 0 0 0 0 0 0 0 0 0 0 0 0 0 0 0 0 0 0 0 0 0 0 0 0 3 1 12 0 0 0 0 0 0 0 0 0 0 0
CIN
0 0 0 0 0 0 0 0 0 0 0 0 0 0 0 0 0 0 0 0 0 0 0 0 0 0 0 0 0 0 0 0 0 0 0 0 0 0 0 0 0 0 0
0 0 0 0 0 0 0 0 0 0 0 0 0 0 0 0 0 0 0 0 0 0 0 0 0 0 0 0 0 0 0 0 0 0 0 0 0 0 0 0 0 0 0
0 0 0 0 0 0 0 0 0 0 0 0 0 0 0 0 0 0 0 0 0 0 0 0 0 0 0 0 0 0 0 0 0 0 0 0 0 0 0 0 0 0 0
0 0 0 0 0 0 0 0 0 0 0 0 0 0 0 0 0 0 0 0 0 0 0 0 0 0 0 0 0 0 0 0 0 0 0 0 0 0 0 0 0 0 0
0 0 0 0 0 0 0 0 0 0 0 0 0 0 0 0 0 0 0 0 0 0 0 0 0 0 0 0 0 0 0 0 0 0 0 0 0 0 0 0 0 0 0
0 0 0 0 0 0 0 0 0 0 0 0 0 0 0 0 0 0 0 0 0 0 0 0 0 0 0 0 0 0 -2 -3 -2 -1 -1 0 0 0 0 0 0 0 0
0 0 0 0 0 0 0 0 0 0 0 0 0 0 0 0 0 0 0 0 0 0 0 0 0 0 -1 -1 0 0 0 0 0 -2 -1 -1 -2 0 0 0 0 0 0
0 0 0 0 0 0 0 0 0 0 0 0 0 0 0 0 0 0 0 0 0 0 0 0 0 0 0 0 0 0 0 0 0 -1 -1 0 0 -1 -4 0 0 0 0
0 0 0 0 0 0 0 0 0 0 0 0 0 0 0 0 0 0 0 0 0 0 0 0 0 0 0 0 0 0 0 0 0 0 0 0 0 0 -1 -4 -1 0 0
0 0 0 0 0 0 0 0 0 0 0 0 0 0 0 0 0 0 0 0 -1 0 0 0 0 0 0 0 0 -1 0 0 0 -3 -7 -1 -1 0 0 0 -1 -1 -2
0 0 0 0 0 0 0 0 0 0 0 0 0 0 0 0 0 0 0 0 0 -1 0 -1 0 0 0 0 0 -1 -1 -1 0 -2 0 0 -1 -1 -1 -2 -1 -1 -1
0 0 0 0 0 0 0 0 0 0 0 0 0 0 0 0 0 0 0 0 0 -2 -1 0 0 0 0 0 0 0 0 -1 -5 -8 -1 0 0 -3 -2 -1 -4 -2 -3
0 0 0 0 0 0 0 0 0 0 0 0 0 0 0 0 0 0 0 0 0 -1 0 -1 0 0 0 -2 0 0 -2 0 0 0 0 0 0 0 0 -1 -6 -1 -1
0 0 0 0 0 0 0 0 0 0 0 0 0 0 0 0 0 0 0 0 0 -1 -4 0 0 -1 0 -1 -1 0 0 0 0 0 0 0 -1 -2 0 0 -2 -6 -2
0 0 0 0 0 0 0 0 0 0 0 0 0 0 -1 0 -1 0 0 -2 -4 -3 -1 -3 -2 -2 -1 -1 0 0 0 0 0 0 0 0 -1 -2 0 0 -3 -4 -2
0 0 0 0 0 0 0 0 0 0 0 0 0 -1 -3 0 0 0 0 0 0 0 0 0 0 0 0 0 -1 -1 -1 -3 0 0 0 -1 -1 -1 0 0 0 -8 -9
0 0 0 0 0 0 0 0 0 0 0 0 0 0 0 0 0 0 0 0 0 0 0 0 0 0 0 0 0 -1 0 0 -2 0 -1 -1 0 0 0 -6 -1 0 0
0 0 0 0 0 0 0 0 0 0 0 0 0 0 0 0 0 0 0 0 0 0 0 0 0 0 0 0 0 0 0 0 -1 0 0 -1 -1 0 0 0 0 0 -1
0 0 0 0 0 0 0 0 0 0 0 0 0 0 0 0 0 0 0 0 0 0 0 0 0 0 0 0 0 0 0 -1 0 0 0 0 0 0 0 -2 -1 0 0
0 0 0 0 0 0 0 0 0 0 0 0 0 0 0 0 0 0 0 0 0 0 0 0 0 0 0 0 0 0 0 0 0 0 0 0 0 0 -1 -1 -1 -7 0
0 0 0 0 0 0 0 0 0 0 0 0 0 0 0 0 0 0 0 0 0 0 0 0 0 0 0 0 0 0 0 0 0 0 0 0 0 0 0 -1 -1 0 0
0 0 0 0 0 0 0 0 0 0 0 0 0 0 0 0 0 0 0 0 0 0 0 0 0 0 0 0 0 0 0 0 0 0 0 0 0 0 0 0 0 0 0
0 0 0 0 0 0 0 0 0 0 0 0 0 0 0 0 0 0 0 0 0 0 0 0 0 0 0 0 0 0 0 0 0 0 0 0 0 0 0 0 0 0 0
0 0 0 0 0 0 0 0 0 0 0 0 0 0 0 0 0 0 0 0 0 0 0 0 0 0 0 0 0 0 0 0 0 0 0 0 0 0 0 0 0 0 0
0 0 0 0 0 0 0 0 0 0 0 0 0 0 0 0 0 0 0 0 0 0 0 0 0 0 0 0 0 0 0 0 0 0 0 0 0 0 0 0 0 0 0
0 0 0 0 0 0 0 0 0 0 0 0 0 0 0 0 0 0 0 0 0 0 0 0 0 0 0 0 0 0 0 0 0 0 0 0 0 0 0 0 0 0 0
Wind_Speed
5 4 5 4 5 5 5 5 5 4 5 5 5 6 6 6 5 6 6 8 9 9 8 6 9 7 5 5 4 4 6 5 11 11 5 4 4 7 7 7 9 10 10
4 4 4 4 5 6 5 5 5 6 5 6 6 8 7 8 6 6 8 7 7 10 11 10 10 7 7 7 6 7 7 8 8 15 12 7 7 7 6 8 8 8 9
3 2 1 3 4 5 5 6 6 6 6 7 7 8 9 9 10 9 9 10 9 9 10 11 12 10 10 7 7 8 7 7 8 9 11 8 5 3 6 6 7 7 6
4 3 1 1 3 4 4 5 5 6 6 7 8 9 10 10 11 10 11 11 10 11 12 12 12 11 12 11 10 10 9 9 9 9 10 9 8 5 5 4 5 5 8
5 3 1 1 2 3 3 3 5 5 6 8 11 11 11 11 9 12 13 13 14 15 15 14 13 14 21 19 12 12 11 9 9 10 11 9 9 4 7 5 9 7 9
5 4 1 1 2 2 4 7 8 9 9 10 10 11 11 9 20 24 22 16 16 16 16 16 15 15 18 25 26 26 21 13 15 12 12 13 13 6 7 9 8 7 8
5 3 2 4 4 5 6 7 8 9 10 10 11 11 12 12 22 24 26 15 16 16 17 16 15 12 15 14 19 26 25 27 29 19 20 18 15 11 6 10 12 11 12
4 4 4 4 4 5 6 7 9 8 10 10 11 12 12 11 24 26 27 17 15 16 16 16 16 17 16 18 18 18 19 18 19 14 17 19 17 15 12 12 13 14 11
4 3 3 3 3 5 6 7 7 8 9 9 10 12 12 13 24 26 23 15 14 15 15 15 14 15 21 26 18 17 19 19 20 32 35 37 36 33 26 10 12 11 13
5 3 1 0 2 4 6 7 6 6 10 9 11 11 13 14 21 25 22 11 13 12 13 15 20 21 26 26 17 15 17 16 15 15 16 22 27 25 31 22 15 15 13
4 3 1 2 3 5 5 5 7 8 10 9 11 10 12 13 14 25 26 14 12 12 11 10 10 24 27 27 27 15 16 19 20 18 16 15 16 17 15 15 18 17 16
3 2 3 3 5 4 4 5 5 6 8 9 10 10 9 11 18 21 26 27 25 15 13 12 13 27 29 29 25 29 32 27 11 10 11 14 15 14 15 15 17 16 16
3 3 3 5 4 5 4 7 5 5 5 7 8 9 10 10 11 25 27 28 27 18 13 20 33 33 33 26 26 28 26 13 12 12 14 14 15 16 19 18 15 17 18
4 5 4 4 5 5 5 5 4 5 5 7 9 10 10 10 10 10 12 13 20 18 20 16 21 27 29 27 18 17 12 12 13 14 14 14 14 15 17 17 14 12 13
4 4 4 3 5 5 5 5 6 7 8 9 9 10 11 11 11 23 22 14 13 17 21 11 11 11 11 8 8 11 11 12 13 14 14 14 14 14 16 17 15 13 13
4 3 3 3 3 4 5 6 13 15 17 20 21 16 9 22 28 28 29 29 29 28 12 10 10 10 11 11 12 13 12 13 12 12 13 13 14 16 17 15 11 13 13
5 4 3 4 4 4 3 4 8 13 17 13 15 19 21 21 25 26 26 26 24 19 6 9 9 10 11 11 11 12 14 13 13 12 12 12 12 14 12 14 12 6 7
5 6 3 3 4 3 3 4 4 5 8 12 12 17 18 22 23 23 22 18 11 9 7 9 10 11 11 12 12 12 13 13 12 10 10 11 11 11 9 7 6 8 8
4 3 4 3 3 4 3 4 4 5 6 7 11 13 12 21 20 19 19 3 8 9 9 10 10 10 11 11 12 12 13 14 13 11 9 10 10 10 12 7 7 13 14
4 7 5 3 3 3 3 3 4 4 5 6 7 7 10 7 8 9 8 8 8 8 9 9 10 10 11 11 12 12 12 13 14 9 10 9 10 9 10 10 9 9 8
4 3 5 3 3 3 3 4 4 3 5 5 7 7 18 6 8 8 9 9 9 9 10 10 10 10 10 11 11 11 11 11 11 12 8 9 9 9 9 10 8 5 4
4 4 3 4 3 3 4 4 3 3 4 5 7 7 16 4 6 7 8 8 9 9 9 9 10 10 10 11 11 11 12 12 11 10 9 7 5 4 4 2 2 3 4
4 4 3 3 3 4 3 3 3 3 4 4 5 5 5 5 6 6 7 8 8 9 10 9 10 10 11 11 11 9 10 11 10 9 9 6 5 4 4 3 3 4 4
4 4 4 4 3 3 3 3 3 4 3 4 4 4 6 5 7 8 8 7 8 9 9 9 9 13 13 12 11 11 7 9 9 9 10 6 5 6 5 5 5 5 6
3 3 4 4 3 3 3 3 3 3 4 4 4 3 4 6 6 7 7 7 8 8 10 10 9 13 14 19 18 19 15 9 10 11 7 7 6 7 6 6 6 7 7
4 4 4 3 3 3 3 3 4 4 4 5 4 4 5 6 7 7 7 8 8 9 10 9 11 14 17 14 16 19 20 14 11 13 8 6 6 6 6 8 9 7 8
Wind_Direction
101 93 80 59 48 47 39 18 2 336 335 333 330 331 332 326 335 324 321 320 328 320 316 299 294 291 291 279 245 250 261 246 266 281 264 247 258 245 247 222 225 224 230
127 110 83 58 35 25 12 352 347 339 337 330 330 332 327 327 326 325 314 310 301 304 303 303 296 298 287 280 278 262 249 253 263 276 278 266 230 244 238 242 230 225 229
175 166 111 28 12 349 339 339 338 331 327 325 323 321 319 319 318 315 307 303 295 282 284 280 287 287 289 285 269 274 266 258 252 261 273 274 258 221 254 245 236 234 231
201 203 218 297 302 301 308 317 324 320 312 314 315 313 311 311 310 303 300 296 289 290 289 284 283 278 278 282 281 279 276 270 264 259 265 267 264 235 233 240 247 228 237
181 184 164 343 321 312 337 334 335 328 330 325 322 316 315 313 309 309 305 299 293 289 285 283 282 281 282 283 284 280 276 274 274 271 269 264 253 229 234 234 244 240 231
157 146 89 62 55 34 8 349 339 333 329 323 317 313 313 310 312 310 306 300 296 293 291 289 288 284 285 287 285 285 280 275 271 268 270 266 262 240 238 242 243 235 255
139 135 92 53 28 7 347 341 334 326 322 319 314 313 312 310 309 309 308 301 296 292 290 292 291 289 292 293 293 289 287 283 274 272 270 265 268 256 235 240 240 235 243
97 86 66 45 9 348 345 331 322 318 317 313 312 308 305 308 311 309 306 298 295 293 291 291 289 291 288 290 287 281 275 270 269 274 269 271 268 268 245 243 240 243 248
129 122 82 39 349 337 320 308 304 307 308 306 302 309 304 302 305 306 308 299 292 292 290 287 287 288 287 286 280 277 274 271 274 274 274 275 272 263 258 255 239 236 245
159 143 92 14 277 276 281 295 296 297 298 301 300 302 296 293 299 304 307 293 291 291 289 286 284 287 290 293 291 288 287 292 295 288 271 269 270 267 260 245 248 237 240
121 122 184 252 246 261 265 279 288 290 292 294 294 294 286 284 288 301 303 299 292 287 282 282 281 286 291 290 287 281 276 278 278 281 278 284 266 261 252 242 240 234 238
134 197 255 276 287 283 259 271 267 278 283 293 296 292 285 288 288 292 299 299 297 297 292 283 278 281 282 279 276 271 274 282 286 287 281 276 274 281 254 244 239 238 235
168 238 261 274 271 267 268 284 289 269 272 291 292 291 292 292 283 285 291 293 288 285 280 279 285 288 285 291 293 288 287 275 268 265 265 264 263 273 279 255 234 231 235
212 246 254 246 265 257 266 272 271 274 282 284 286 284 287 285 293 298 287 282 279 282 282 280 273 276 274 272 272 274 270 266 263 263 261 264 266 261 260 271 232 220 223
215 245 253 249 249 263 252 262 265 262 268 281 289 296 303 307 301 304 315 312 304 300 308 308 310 304 308 287 262 260 259 258 255 257 258 262 263 257 256 256 235 217 220
222 241 237 255 259 274 278 289 290 296 302 304 307 308 308 310 313 319 315 316 321 331 323 324 312 305 300 301 299 295 284 271 255 254 258 263 265 264 248 249 217 212 215
213 239 240 258 263 260 279 294 307 317 318 318 318 322 319 322 324 324 334 330 342 336 323 312 306 307 305 304 300 294 293 283 271 260 263 266 274 279 263 239 234 226 201
222 236 218 235 243 248 246 267 270 288 306 314 319 318 325 330 328 342 343 350 331 337 316 313 309 309 308 304 301 294 288 282 271 262 260 262 277 299 276 238 227 229 222
215 225 218 225 236 244 256 269 263 276 280 289 308 315 318 323 335 343 347 325 321 320 319 316 311 309 307 305 303 304 304 296 277 261 259 262 266 273 287 280 273 235 216
227 241 229 223 244 246 247 255 269 273 282 288 295 297 311 322 344 333 333 329 323 316 315 312 310 307 306 308 310 307 309 311 317 267 250 256 258 258 268 275 281 232 198
217 223 229 242 247 233 229 237 257 263 275 287 284 296 316 6 319 318 321 323 321 317 317 317 315 312 312 313 315 316 315 317 322 328 288 253 253 254 255 257 248 223 212
213 220 209 222 233 239 236 237 249 260 266 284 291 301 328 318 300 306 310 313 313 314 314 314 314 314 314 317 316 320 321 321 324 325 325 325 323 330 315 281 211 189 163
215 216 225 237 223 238 241 244 262 250 264 269 279 299 306 299 297 298 300 305 313 314 316 317 318 318 321 320 320 314 322 322 322 320 324 330 338 347 358 33 51 82 110
200 213 221 232 221 224 237 262 263 266 272 278 281 286 289 292 296 297 299 304 309 311 313 315 317 321 322 325 326 330 315 332 332 326 331 338 351 1 19 37 50 73 95
199 221 225 228 222 227 254 263 265 261 264 267 277 275 277 287 293 298 299 302 306 310 311 314 314 321 323 322 323 336 340 355 352 347 341 353 17 26 36 46 56 68 80
218 225 230 224 234 237 243 256 260 263 270 274 270 272 279 288 292 293 300 307 313 313 306 308 310 315 321 321 324 334 345 10 13 3 359 6 19 33 45 54 58 64 72